ARIANE 5 DEB, 43383

Orbit data source: Space-Track

ARIANE 5 DEB, 43383 is space debris in HEO originally from a launch on Thu, 12 Jun 2008 UTC launched from the French Guiana (FRGUI). Debris objects in space refer to the collection of defunct objects orbiting the Earth. Examples of debris include non-operational satellites, rocket bodies, and fragments generated from explosions, collisions, or faulty payload assembly.

Loading next visibility...
ARIANE 5 DEB details
Identifier
43383, 2008-030F
Orbit
HEO
Last TLE update14 hours ago
Origin
Flag of FRESA (FR)
ManufacturerThales Alenia
MissionSpacecraft
Bus & MotorUnknown
MassUnknown
Launch date (UTC)
2008-06-12 (17 years ago)
Launch vehicleUnknown
Launch site
French Guiana (FRGUI)
Object type
Payload
Rocket body
Debris
Shape & HBRUnknown
Radar Cross SectionMedium (>0.1 m² and <1 m²)

Expand to show TLE details & history

TLE from 14 hours ago
0 ARIANE 5 DEB
1 43383U 08030F   24361.04789609  .00001775  00000-0  43299-1 0  9999
2 43383   2.0927 260.5649 6980690 133.6703 311.7193  2.41417349134868
Epoch: 2024-12-26T01:08Z
Definitive object data (Epoch: 2024-12-26T01:08:58.222Z)
Latitude-0.00003°
Longitude148.93687°
Altitude16,636.729 km
Speed4.202 km/s
True Right ascension17h 24m 50s
True Declination0° 00' 00"
Sunlit
Object was in daylight at TLE epoch
Visualization TLE readout
Latitude-2.01317°
Longitude73.0038°
Altitude24,396.993 km
Speed2.987 km/s
Apparent Right ascension12h 03m 05s
Apparent Declination-11° 02' 22"
Sunlit
Object is in daylight
Visualization observer readout
Local Sidereal Time14:01:19
Azimuth214.876° SW
Elevation32.137°
Doppler factor1
Orbital elements
Apogee altitude33,488.185 km
Perigee altitude710.432 km
Semi-major axis23,477.445 km
Eccentricity0.698069
Inclination2.0927°
RAAN260.5649°
Arg. of periapsis133.6703°
True anomaly226.988°
Mean anomaly311.7193°
Eccentric anomaly271.74136°
Mean motion0.60335 °/min
BSTAR0.043299
Orbital period596.67 mins
Loading maneuver chart data...
Loading historical data...
Loading historical data...
Loading historical data...
Loading historical data...
Loading historical data...
Loading historical data...
Loading historical data...

ARIANE 5 DEB Visibility forecast

Observer location: undefined°, undefined

Span
Click to sort rows by Start time (UTC) header in descending order
Start Az.
Max El. time (UTC)
Max El. Az.
Max El.
End time (UTC)
End Az.
445 mins2024-12-26 14:39:26.924Z214.861° SW2024-12-26 15:20:26.924Z216.403° SW28.538°2024-12-26 22:04:26.924Z172.239° S
358 mins2024-12-27 08:41:26.924Z190.705° SSW2024-12-27 14:39:26.924Z155.744° SSE32.014°2024-12-27 14:39:26.924Z155.744° SSE
|